Location: Caltech
(34.1382°N, 118.1253°W)
Time: 12:45:53
(UTC-07:00)

Gbstr 26 Del rocket - Visible Passes

Search period start: 28 July 2015 00:00
Search period end: 07 August 2015 00:00
Orbit: 493 x 1270 km, 51.8° (Epoch: 27 July)

Date Brightness Start Highest point End Pass type
(mag) Time Alt. Az. Time Alt. Az. Time Alt. Az.
28 Jul 5.9 21:39:34 10° NNW 21:42:28 14° N 21:45:09 10° NE visible
28 Jul 5.0 23:26:34 10° NNW 23:30:04 29° N 23:30:04 29° N visible
29 Jul 5.8 21:35:55 10° NNW 21:39:11 15° N 21:42:12 10° NE visible
29 Jul 4.8 23:22:51 10° NW 23:26:17 32° N 23:26:17 32° N visible
30 Jul 5.7 21:32:13 10° NNW 21:35:55 17° NNE 21:39:15 10° NE visible
30 Jul 4.7 23:19:10 10° NW 23:22:32 35° NNW 23:22:32 35° NNW visible
31 Jul 5.6 21:28:30 10° NNW 21:32:37 19° NNE 21:36:14 10° ENE visible
31 Jul 4.7 23:15:31 10° NW 23:18:49 36° NW 23:18:49 36° NW visible
01 Aug 5.3 21:24:47 10° NNW 21:29:18 22° NNE 21:32:33 13° ENE visible
01 Aug 4.7 23:11:54 10° NW 23:15:09 35° NW 23:15:09 35° NW visible
02 Aug 5.1 21:21:04 10° NNW 21:25:57 26° NNE 21:28:54 16° ENE visible
02 Aug 4.8 23:08:21 10° NW 23:11:31 33° WNW 23:11:31 33° WNW visible
03 Aug 4.8 21:17:20 10° NNW 21:22:35 32° NNE 21:25:19 19° ENE visible
03 Aug 4.9 23:04:52 10° WNW 23:07:55 30° WNW 23:07:55 30° WNW visible
04 Aug 4.4 21:13:38 10° NW 21:19:11 39° NNE 21:21:46 23° E visible
04 Aug 5.1 23:01:28 10° WNW 23:04:22 25° W 23:04:22 25° W visible
05 Aug 4.0 21:09:56 10° NW 21:15:44 48° NE 21:18:16 26° E visible
05 Aug 5.3 22:58:11 10° WNW 23:00:52 21° W 23:00:52 21° W visible
06 Aug 3.7 21:06:16 10° NW 21:12:15 62° NE 21:14:49 28° ESE visible
06 Aug 5.5 22:55:06 10° WNW 22:57:25 17° WSW 22:57:25 17° WSW visible
